TimeCST,TemperatureF,Dew PointF,Humidity,Sea Level PressureIn,VisibilityMPH,Wind Direction,Wind SpeedMPH,Gust SpeedMPH,PrecipitationIn,Events,Conditions,WindDirDegrees,DateUTC
12:53 AM,36.0,32.0,86,29.90,6.0,SSW,8.1,-,N/A,,Clear,200,2013-02-14 06:53:00
1:53 AM,35.1,32.0,89,29.89,4.0,SSW,8.1,-,N/A,,Clear,210,2013-02-14 07:53:00
2:53 AM,33.1,30.9,92,29.88,3.0,SSW,8.1,-,N/A,,Clear,200,2013-02-14 08:53:00
3:53 AM,34.0,32.0,92,29.88,3.0,SSW,6.9,-,N/A,,Clear,200,2013-02-14 09:53:00
4:53 AM,35.1,33.1,92,29.88,4.0,South,6.9,-,N/A,,Clear,180,2013-02-14 10:53:00
5:53 AM,34.0,32.0,92,29.87,3.0,South,8.1,-,N/A,,Partly Cloudy,170,2013-02-14 11:53:00
6:53 AM,35.1,33.1,92,29.88,2.5,South,10.4,-,N/A,,Clear,180,2013-02-14 12:53:00
7:48 AM,37.4,33.8,87,29.88,3.0,South,8.1,-,N/A,,Partly Cloudy,180,2013-02-14 13:48:00
7:53 AM,37.0,35.1,93,29.88,3.0,South,9.2,-,N/A,,Partly Cloudy,190,2013-02-14 13:53:00
8:53 AM,41.0,36.0,82,29.89,6.0,SSW,12.7,-,N/A,,Haze,210,2013-02-14 14:53:00
9:53 AM,45.0,36.0,71,29.90,7.0,SW,13.8,-,N/A,,Partly Cloudy,230,2013-02-14 15:53:00
10:53 AM,48.9,35.1,59,29.90,9.0,WSW,15.0,-,N/A,,Clear,240,2013-02-14 16:53:00
11:53 AM,51.1,36.0,56,29.90,10.0,WSW,15.0,-,N/A,,Clear,250,2013-02-14 17:53:00
12:53 PM,54.0,35.1,49,29.89,10.0,WSW,13.8,-,N/A,,Clear,250,2013-02-14 18:53:00
1:53 PM,55.0,35.1,47,29.89,10.0,West,18.4,-,N/A,,Partly Cloudy,270,2013-02-14 19:53:00
2:53 PM,53.1,34.0,48,29.91,10.0,West,12.7,21.9,N/A,,Scattered Clouds,270,2013-02-14 20:53:00
3:53 PM,54.0,33.1,45,29.92,10.0,West,13.8,21.9,N/A,,Scattered Clouds,270,2013-02-14 21:53:00
4:53 PM,51.1,33.1,50,29.95,10.0,WNW,12.7,-,N/A,,Clear,290,2013-02-14 22:53:00
5:53 PM,45.0,33.1,63,29.98,10.0,WNW,6.9,-,N/A,,Clear,300,2013-02-14 23:53:00
6:53 PM,44.1,33.1,65,30.00,10.0,NNW,8.1,-,N/A,,Clear,340,2013-02-15 00:53:00
7:53 PM,42.1,33.1,70,30.03,10.0,North,9.2,-,N/A,,Scattered Clouds,360,2013-02-15 01:53:00
8:53 PM,41.0,30.9,67,30.06,10.0,North,12.7,-,N/A,,Partly Cloudy,10,2013-02-15 02:53:00
9:53 PM,37.9,30.9,76,30.05,9.0,NNE,5.8,-,N/A,,Clear,20,2013-02-15 03:53:00
10:53 PM,37.0,30.9,79,30.04,10.0,Calm,Calm,-,N/A,,Clear,0,2013-02-15 04:53:00
11:53 PM,34.0,30.0,85,30.05,8.0,SSW,4.6,-,N/A,,Partly Cloudy,200,2013-02-15 05:53:00